Change the Weather History Date:

Monday, November 12, 2012

  Actual Average Record
Temperature  
Mean Temperature 34 °F 45 °F  
Max Temperature 49 °F 57 °F 79 °F (2005)
Min Temperature 19 °F 33 °F 16 °F (2013)
Degree Days  
Heating Degree Days 31 20  
Month to date heating degree days 177 207  
Since 1 July heating degree days 633 571  
Cooling Degree Days 0 0  
Month to date cooling degree days 6 0  
Year to date cooling degree days 1780 1370  
Moisture  
Dew Point 19 °F    
Average Humidity 60    
Maximum Humidity 88    
Minimum Humidity 31    
Precipitation  
Precipitation 0.00 in 0.07 in 1.23 in (2010)
Month to date precipitation 1.01 1.01  
Year to date precipitation 20.05 35.91  
Sea Level Pressure  
Sea Level Pressure 30.39 in    
Wind  
Wind Speed 5 mph (West)    
Max Wind Speed 24 mph    
Max Gust Speed 32 mph    
Visibility 10 miles    
Events      
T = Trace of Precipitation, MM = Missing Value Source: NWS Daily Summary

Daily Weather History Graph

Daily Weather History Graph

Search for Another Location

Airport or City:

Trip Planner

Search our weather history database for the weather conditions in past years. The results will help you decide how hot, cold, wet, or windy it might be!

Date:

Astronomy

Nov. 12, 2012 Rise Set
Actual Time 7:00 AM CST 5:08 PM CST
Civil Twilight 6:32 AM CST 5:37 PM CST
Nautical Twilight 6:00 AM CST 6:09 PM CST
Astronomical Twilight 5:28 AM CST 6:40 PM CST
Moon 5:27 AM CST (11/12) 4:14 PM CST (11/12)
Length of Visible Light 11h 04m
Length of Day
10h 07m
Waning Crescent, 2% of the Moon is Illuminated
Nov 12
Waning Crescent
Nov 13
New
Nov 20
First Quarter
Nov 28
Full
Dec 6
Last Quarter

Hourly Weather History & Observations

Time (CST) Temp. Windchill Dew Point Humidity Pressure Visibility Wind Dir Wind Speed Gust Speed Precip Events Conditions
12:52 AM 26.1 °F - 19.0 °F 75% 30.28 in 10.0 mi Calm Calm - N/A   Clear
1:52 AM 27.0 °F - 18.0 °F 69% 30.30 in 10.0 mi Calm Calm - N/A   Clear
2:52 AM 24.1 °F - 18.0 °F 77% 30.31 in 10.0 mi Calm Calm - N/A   Clear
3:52 AM 23.0 °F - 18.0 °F 81% 30.33 in 10.0 mi Calm Calm - N/A   Clear
4:52 AM 21.9 °F 17.2 °F 15.1 °F 75% 30.34 in 10.0 mi WSW 3.5 mph - N/A   Clear
6:52 AM 19.9 °F - 16.0 °F 85% 30.38 in 10.0 mi Calm Calm - N/A   Clear
7:52 AM 26.1 °F - 19.9 °F 78% 30.39 in 10.0 mi Calm Calm - N/A   Clear
8:52 AM 32.0 °F 24.8 °F 21.9 °F 66% 30.40 in 10.0 mi West 8.1 mph - N/A   Clear
9:52 AM 37.0 °F 30.4 °F 21.0 °F 52% 30.42 in 10.0 mi West 9.2 mph - N/A   Clear
10:52 AM 42.1 °F 35.7 °F 21.9 °F 45% 30.41 in 10.0 mi West 11.5 mph - N/A   Clear
11:52 AM 45.0 °F 38.5 °F 19.9 °F 37% 30.39 in 10.0 mi WSW 13.8 mph - N/A   Clear
12:52 PM 46.0 °F 39.0 °F 19.0 °F 34% 30.38 in 10.0 mi WNW 17.3 mph 29.9 mph N/A   Clear
1:52 PM 46.9 °F - 21.0 °F 36% 30.38 in 10.0 mi West 16.1 mph 20.7 mph N/A   Clear
2:52 PM 48.0 °F - 19.0 °F 32% 30.37 in 10.0 mi West 17.3 mph 25.3 mph N/A   Clear
3:52 PM 46.9 °F - 17.1 °F 30% 30.38 in 10.0 mi West 15.0 mph - N/A   Clear
4:52 PM 45.0 °F 40.1 °F 18.0 °F 34% 30.39 in 10.0 mi WNW 9.2 mph - N/A   Clear
5:52 PM 37.0 °F 34.5 °F 19.0 °F 48% 30.41 in 10.0 mi West 3.5 mph - N/A   Clear
6:52 PM 28.0 °F - 21.0 °F 75% 30.43 in 10.0 mi Calm Calm - N/A   Clear
7:52 PM 27.0 °F - 21.0 °F 78% 30.43 in 10.0 mi Calm Calm - N/A   Clear
8:52 PM 25.0 °F 20.7 °F 21.0 °F 85% 30.45 in 10.0 mi NE 3.5 mph - N/A   Clear
9:52 PM 25.0 °F - 19.9 °F 81% 30.45 in 10.0 mi Calm Calm - N/A   Clear
10:52 PM 23.0 °F - 19.0 °F 85% 30.45 in 10.0 mi Calm Calm - N/A   Clear
11:52 PM 24.1 °F - 19.0 °F 81% 30.46 in 10.0 mi Calm Calm - N/A   Clear